DECAYED

STARLINK-32559, 61915 (Decayed)

Orbit data source: Space-Track

STARLINK-32559, 61915 was a payload satellite owned by SpaceX/Seattle (US) in LEO that was launched on Mon, 11 Nov 2024 UTC via an FALCON 9 launch vehicle from the Air Force Eastern Test Range (AFETR). Payload-class satellites include a variety of spacecraft equipped with specific instruments for various scientific and technological missions. These include communications satellites like Starlink; space stations such as the ISS; scientific satellites like the Hubble; Earth observation satellites from companies like Planet Labs, Umbra, and HawkEye 360; GPS; miniature CubeSats for education and research; and military/defense satellites.

Not visible in the next 10 days
Identifier
61915, 2024-207D
Orbit
Decayed
Country
Flag of USUS
Related business
Manufacturer
SpaceX/Seattle
Mission
Decayed Commercial Communications
Bus & Motor
STARLINK V2M, Unknown motor
Mass
730 kg wet, ~700 kg dry
Launch date (UTC)
2024-11-11 (2 years ago)
Launch vehicle
FALCON 9
Launch site
Air Force Eastern Test Range (AFETR)
Object type
Payload
Rocket body
Debris
Shape & HBR
Box + 2 Pan, 17.7 m
Radar Cross Section
33.884 m², Large (>1 m²)

Expand to show TLE details & history
Last TLE update: 2 weeks ago

TLE from 2 weeks ago
0 STARLINK-32559
1 61915U 24207D   26249.54076257  .09800687  90344-5  33313-2 0  9994
2 61915  42.9924 313.7492 0003585  41.1438 318.9719 16.24573324102687
Epoch: 2026-09-06T12:58Z
TLE epoch observation values (Epoch: 2026-09-06T12:58:41.886Z)
Latitude
-0°
Longitude
133.44027°
Altitude
205.149 km
Speed
7.786 km/s
True Right ascension
20h 54m 59s
True Declination
0° 00' 00"
Sunlit
Object was in full shadow at epoch
Visualization orbit readout
Latitude
Unknown
Longitude
Unknown
Altitude
Unknown
Speed
Unknown
Apparent Right ascension
Unknown
Apparent Declination
Unknown
Sunlit
N/A
Visualization observer readout
Local Sidereal Time
08:30:26
Azimuth
Unknown
Elevation
Unknown
Doppler factor
Unknown
Orbital elements
Apogee altitude
211.553 km
Perigee altitude
206.83 km
Semi-major axis
6,587.329 km
Eccentricity
0.00036
Inclination
42.9924°
RAAN
313.7492°
Arg. of periapsis
41.1438°
True anomaly
318.94492°
Mean anomaly
318.9719°
Eccentric anomaly
318.95841°
Mean motion
4.05956 °/min
Orbital period
88.68 mins
BSTAR
0.0033313
Loading maneuver chart data...
Computing Atmospheric mass density...
Loading historical data...
Loading historical data...
Loading historical data...
Loading historical data...
Loading historical data...
Loading historical data...
Loading historical data...

Documentation

Showing up to 5 results
|